QPF
0.01 0.01 0.00 0.00 0.00 0.00 0.00 0.00 0.00 0.00 0.00 0.00 0.00 0.00 0.00 0.00 0.00 0.00 0.00 0.00 0.00 0.00 0.00 0.00 0.00 0.00 0.00 0.00 0.00 0.00 0.00 0.00 0.00 0.00 0.00 0.00 0.00 0.00 0.00 0.00 0.00 0.00 0.00 0.00
0.00 0.00 0.00 0.00 0.00 0.00 0.00 0.00 0.00 0.00 0.00 0.00 0.00 0.00 0.00 0.00 0.00 0.00 0.00 0.00 0.00 0.00 0.00 0.00 0.00 0.00 0.00 0.00 0.00 0.00 0.00 0.00 0.00 0.00 0.00 0.00 0.00 0.00 0.00 0.00 0.00 0.00 0.00 0.00
0.00 0.00 0.00 0.00 0.00 0.00 0.00 0.00 0.00 0.00 0.00 0.00 0.00 0.00 0.00 0.00 0.00 0.00 0.00 0.00 0.00 0.00 0.00 0.00 0.00 0.00 0.00 0.00 0.00 0.00 0.00 0.00 0.00 0.00 0.00 0.00 0.00 0.00 0.00 0.00 0.00 0.00 0.00 0.00
0.00 0.00 0.00 0.00 0.00 0.00 0.00 0.00 0.00 0.00 0.00 0.00 0.00 0.00 0.00 0.00 0.00 0.00 0.00 0.00 0.00 0.00 0.00 0.00 0.00 0.00 0.00 0.00 0.00 0.00 0.00 0.00 0.00 0.00 0.00 0.00 0.00 0.00 0.00 0.00 0.00 0.00 0.00 0.00
0.00 0.00 0.00 0.00 0.00 0.00 0.00 0.00 0.00 0.00 0.00 0.00 0.00 0.00 0.00 0.00 0.00 0.00 0.00 0.00 0.00 0.00 0.00 0.00 0.00 0.00 0.00 0.00 0.00 0.00 0.00 0.00 0.00 0.00 0.00 0.00 0.00 0.00 0.00 0.00 0.00 0.00 0.00 0.00
0.00 0.00 0.00 0.00 0.00 0.00 0.00 0.00 0.00 0.00 0.00 0.00 0.00 0.00 0.00 0.00 0.00 0.00 0.00 0.00 0.00 0.00 0.00 0.00 0.00 0.00 0.00 0.00 0.00 0.00 0.00 0.00 0.00 0.00 0.00 0.00 0.00 0.00 0.00 0.00 0.00 0.00 0.00 0.00
0.00 0.00 0.00 0.00 0.00 0.00 0.00 0.00 0.00 0.00 0.00 0.00 0.00 0.00 0.00 0.00 0.00 0.00 0.00 0.00 0.00 0.00 0.00 0.00 0.00 0.00 0.00 0.00 0.00 0.00 0.00 0.00 0.00 0.00 0.00 0.00 0.00 0.00 0.00 0.00 0.00 0.00 0.00 0.00
0.00 0.00 0.00 0.00 0.00 0.00 0.00 0.00 0.00 0.00 0.00 0.00 0.00 0.00 0.00 0.00 0.00 0.00 0.00 0.00 0.00 0.00 0.00 0.00 0.00 0.00 0.00 0.00 0.00 0.00 0.00 0.00 0.00 0.00 0.00 0.00 0.00 0.00 0.00 0.00 0.00 0.00 0.00 0.00
0.00 0.00 0.00 0.00 0.00 0.00 0.00 0.00 0.00 0.00 0.00 0.00 0.00 0.00 0.00 0.00 0.00 0.00 0.00 0.00 0.00 0.00 0.00 0.00 0.00 0.00 0.00 0.00 0.00 0.00 0.00 0.00 0.00 0.00 0.00 0.00 0.00 0.00 0.00 0.00 0.00 0.00 0.00 0.00
0.00 0.00 0.00 0.00 0.00 0.00 0.00 0.00 0.00 0.00 0.00 0.00 0.00 0.00 0.00 0.00 0.00 0.00 0.00 0.00 0.00 0.00 0.00 0.00 0.00 0.00 0.00 0.00 0.00 0.00 0.00 0.00 0.00 0.00 0.00 0.00 0.00 0.00 0.00 0.00 0.00 0.00 0.00 0.00
0.00 0.00 0.00 0.00 0.00 0.00 0.00 0.00 0.00 0.00 0.00 0.00 0.00 0.00 0.00 0.00 0.00 0.00 0.00 0.00 0.00 0.00 0.00 0.00 0.00 0.00 0.00 0.00 0.00 0.00 0.00 0.00 0.00 0.00 0.00 0.00 0.00 0.00 0.00 0.00 0.00 0.00 0.00 0.00
0.00 0.00 0.00 0.00 0.00 0.00 0.00 0.00 0.00 0.00 0.00 0.00 0.00 0.00 0.00 0.00 0.00 0.00 0.00 0.00 0.00 0.00 0.00 0.00 0.00 0.00 0.00 0.00 0.00 0.00 0.00 0.00 0.00 0.00 0.00 0.00 0.00 0.00 0.00 0.00 0.00 0.00 0.00 0.00
0.00 0.00 0.00 0.00 0.00 0.00 0.00 0.00 0.00 0.00 0.00 0.00 0.00 0.00 0.00 0.00 0.00 0.00 0.00 0.00 0.00 0.00 0.00 0.00 0.00 0.00 0.00 0.00 0.00 0.00 0.00 0.00 0.00 0.00 0.00 0.00 0.00 0.00 0.00 0.00 0.00 0.00 0.00 0.00
0.00 0.00 0.00 0.00 0.00 0.00 0.00 0.00 0.00 0.00 0.00 0.00 0.00 0.00 0.00 0.00 0.00 0.00 0.00 0.00 0.00 0.00 0.00 0.00 0.00 0.00 0.00 0.00 0.00 0.00 0.00 0.00 0.00 0.00 0.00 0.00 0.00 0.00 0.00 0.00 0.00 0.00 0.00 0.00
0.00 0.00 0.00 0.00 0.00 0.00 0.00 0.00 0.00 0.00 0.00 0.00 0.00 0.00 0.00 0.00 0.00 0.00 0.00 0.00 0.00 0.00 0.00 0.00 0.00 0.00 0.00 0.00 0.00 0.00 0.00 0.00 0.00 0.00 0.00 0.00 0.00 0.00 0.00 0.00 0.00 0.00 0.00 0.00
0.00 0.00 0.00 0.00 0.00 0.00 0.00 0.00 0.00 0.00 0.00 0.00 0.00 0.00 0.00 0.00 0.00 0.00 0.00 0.00 0.00 0.00 0.00 0.00 0.00 0.00 0.00 0.00 0.00 0.00 0.00 0.00 0.00 0.00 0.00 0.00 0.00 0.00 0.00 0.00 0.00 0.00 0.00 0.00
0.00 0.00 0.00 0.00 0.00 0.00 0.00 0.00 0.00 0.00 0.00 0.00 0.00 0.00 0.00 0.00 0.00 0.00 0.00 0.00 0.00 0.00 0.00 0.00 0.00 0.00 0.00 0.00 0.00 0.00 0.00 0.00 0.00 0.00 0.00 0.00 0.00 0.00 0.00 0.00 0.00 0.00 0.00 0.00
0.00 0.00 0.00 0.00 0.00 0.00 0.00 0.00 0.00 0.00 0.00 0.00 0.00 0.00 0.00 0.00 0.00 0.00 0.00 0.00 0.00 0.00 0.00 0.00 0.00 0.00 0.00 0.00 0.00 0.00 0.00 0.00 0.00 0.00 0.00 0.00 0.00 0.00 0.00 0.00 0.00 0.00 0.00 0.00
0.00 0.00 0.00 0.00 0.00 0.00 0.00 0.00 0.00 0.00 0.00 0.00 0.00 0.00 0.00 0.00 0.00 0.00 0.00 0.00 0.00 0.00 0.00 0.00 0.00 0.00 0.00 0.00 0.00 0.00 0.00 0.00 0.00 0.00 0.00 0.00 0.00 0.00 0.00 0.00 0.00 0.00 0.00 0.00
0.00 0.00 0.00 0.00 0.00 0.00 0.00 0.00 0.00 0.00 0.00 0.00 0.00 0.00 0.00 0.00 0.00 0.00 0.00 0.00 0.00 0.00 0.00 0.00 0.00 0.00 0.00 0.00 0.00 0.00 0.00 0.00 0.00 0.00 0.00 0.00 0.00 0.00 0.00 0.00 0.00 0.00 0.00 0.00
0.00 0.00 0.00 0.00 0.00 0.00 0.00 0.00 0.00 0.00 0.00 0.00 0.00 0.00 0.00 0.00 0.00 0.00 0.00 0.00 0.00 0.00 0.00 0.00 0.00 0.00 0.00 0.00 0.00 0.00 0.00 0.00 0.00 0.00 0.00 0.00 0.00 0.00 0.00 0.00 0.00 0.00 0.00 0.00
0.00 0.00 0.00 0.00 0.00 0.00 0.00 0.00 0.00 0.00 0.00 0.00 0.00 0.00 0.00 0.00 0.00 0.00 0.00 0.00 0.00 0.00 0.00 0.00 0.00 0.00 0.00 0.00 0.00 0.00 0.00 0.00 0.00 0.00 0.00 0.00 0.00 0.00 0.00 0.00 0.00 0.00 0.00 0.00
0.00 0.00 0.00 0.00 0.00 0.00 0.00 0.01 0.01 0.01 0.01 0.00 0.00 0.00 0.00 0.00 0.00 0.00 0.01 0.00 0.00 0.00 0.00 0.00 0.00 0.00 0.00 0.00 0.00 0.00 0.00 0.00 0.00 0.00 0.00 0.00 0.00 0.00 0.00 0.00 0.00 0.00 0.00 0.00
0.01 0.01 0.01 0.01 0.01 0.01 0.01 0.01 0.01 0.01 0.01 0.01 0.00 0.00 0.00 0.01 0.01 0.00 0.00 0.00 0.00 0.00 0.00 0.00 0.00 0.00 0.00 0.00 0.00 0.00 0.00 0.00 0.00 0.00 0.00 0.00 0.00 0.00 0.00 0.00 0.00 0.00 0.00 0.00
0.02 0.02 0.02 0.02 0.02 0.01 0.01 0.01 0.00 0.00 0.00 0.00 0.00 0.00 0.00 0.00 0.00 0.00 0.00 0.01 0.01 0.01 0.00 0.00 0.00 0.00 0.00 0.00 0.00 0.00 0.00 0.00 0.00 0.00 0.00 0.00 0.00 0.00 0.00 0.00 0.00 0.00 0.00 0.00
0.02 0.02 0.02 0.02 0.01 0.01 0.01 0.01 0.01 0.00 0.00 0.00 0.00 0.00 0.00 0.00 0.00 0.00 0.00 0.00 0.00 0.00 0.00 0.00 0.00 0.00 0.00 0.00 0.00 0.00 0.00 0.00 0.00 0.00 0.00 0.00 0.00 0.00 0.00 0.00 0.00 0.00 0.00 0.00
0.01 0.01 0.01 0.01 0.01 0.01 0.01 0.01 0.01 0.01 0.01 0.00 0.00 0.00 0.00 0.00 0.00 0.00 0.00 0.00 0.00 0.00 0.00 0.00 0.00 0.00 0.00 0.00 0.00 0.00 0.00 0.00 0.00 0.00 0.00 0.00 0.00 0.00 0.00 0.00 0.00 0.00 0.00 0.00
MSLP
1014.22 1014.59 1015.01 1015.44 1015.83 1016.11 1016.22 1016.12 1015.79 1015.23 1014.50 1013.65 1012.78 1011.99 1011.34 1010.89 1010.67 1010.66 1010.85 1011.18 1011.58 1012.00 1012.40 1012.74 1013.03 1013.26 1013.45 1013.63 1013.81 1013.99 1014.17 1014.34 1014.49 1014.59 1014.63 1014.61 1014.51 1014.36 1014.16 1013.93 1013.67 1013.41 1013.15 1012.88
1014.59 1014.86 1015.10 1015.31 1015.43 1015.44 1015.31 1015.02 1014.57 1013.99 1013.31 1012.59 1011.89 1011.27 1010.79 1010.47 1010.34 1010.37 1010.55 1010.84 1011.20 1011.58 1011.96 1012.31 1012.64 1012.93 1013.21 1013.46 1013.70 1013.93 1014.13 1014.30 1014.43 1014.50 1014.51 1014.47 1014.37 1014.23 1014.07 1013.88 1013.67 1013.46 1013.23 1012.99
1015.05 1015.18 1015.23 1015.19 1015.05 1014.80 1014.43 1013.97 1013.42 1012.82 1012.20 1011.59 1011.04 1010.59 1010.26 1010.06 1010.00 1010.06 1010.23 1010.48 1010.79 1011.13 1011.48 1011.84 1012.20 1012.55 1012.88 1013.20 1013.50 1013.76 1013.98 1014.14 1014.25 1014.30 1014.29 1014.23 1014.14 1014.03 1013.90 1013.76 1013.61 1013.45 1013.27 1013.06
1015.52 1015.49 1015.34 1015.06 1014.67 1014.19 1013.63 1013.02 1012.40 1011.78 1011.21 1010.71 1010.29 1009.97 1009.77 1009.66 1009.66 1009.74 1009.89 1010.10 1010.37 1010.67 1011.00 1011.36 1011.73 1012.12 1012.50 1012.86 1013.19 1013.47 1013.69 1013.85 1013.93 1013.96 1013.93 1013.88 1013.80 1013.71 1013.63 1013.54 1013.45 1013.34 1013.20 1013.02
1015.90 1015.69 1015.34 1014.85 1014.26 1013.59 1012.88 1012.17 1011.50 1010.89 1010.37 1009.95 1009.64 1009.43 1009.32 1009.29 1009.32 1009.41 1009.55 1009.73 1009.96 1010.22 1010.54 1010.89 1011.27 1011.68 1012.09 1012.47 1012.81 1013.10 1013.31 1013.44 1013.51 1013.51 1013.48 1013.42 1013.36 1013.30 1013.25 1013.20 1013.15 1013.08 1012.98 1012.84
1016.08 1015.69 1015.16 1014.51 1013.76 1012.97 1012.17 1011.41 1010.73 1010.14 1009.68 1009.33 1009.11 1008.98 1008.93 1008.94 1009.00 1009.09 1009.22 1009.38 1009.58 1009.82 1010.12 1010.47 1010.85 1011.26 1011.68 1012.06 1012.40 1012.67 1012.87 1012.98 1013.02 1013.01 1012.96 1012.91 1012.85 1012.81 1012.78 1012.77 1012.74 1012.70 1012.62 1012.49
1015.97 1015.42 1014.75 1013.99 1013.16 1012.31 1011.48 1010.72 1010.07 1009.53 1009.12 1008.83 1008.67 1008.60 1008.59 1008.63 1008.70 1008.79 1008.91 1009.06 1009.25 1009.48 1009.77 1010.11 1010.50 1010.90 1011.30 1011.68 1012.00 1012.25 1012.41 1012.50 1012.52 1012.50 1012.44 1012.39 1012.34 1012.30 1012.29 1012.27 1012.26 1012.21 1012.13 1012.00
1015.51 1014.86 1014.11 1013.29 1012.45 1011.61 1010.81 1010.10 1009.50 1009.01 1008.66 1008.43 1008.31 1008.27 1008.29 1008.34 1008.42 1008.53 1008.65 1008.80 1008.99 1009.22 1009.51 1009.85 1010.22 1010.62 1011.00 1011.34 1011.64 1011.85 1011.99 1012.06 1012.07 1012.03 1011.98 1011.92 1011.87 1011.84 1011.82 1011.79 1011.75 1011.68 1011.58 1011.43
1014.74 1014.03 1013.26 1012.46 1011.66 1010.88 1010.15 1009.52 1008.98 1008.57 1008.27 1008.08 1007.98 1007.97 1008.00 1008.07 1008.17 1008.29 1008.42 1008.60 1008.80 1009.06 1009.35 1009.69 1010.05 1010.42 1010.77 1011.08 1011.33 1011.52 1011.64 1011.69 1011.69 1011.65 1011.60 1011.55 1011.50 1011.47 1011.43 1011.38 1011.30 1011.20 1011.05 1010.87
1013.74 1013.02 1012.28 1011.54 1010.82 1010.14 1009.51 1008.96 1008.50 1008.15 1007.89 1007.73 1007.66 1007.65 1007.70 1007.79 1007.91 1008.07 1008.24 1008.45 1008.69 1008.97 1009.28 1009.61 1009.96 1010.30 1010.61 1010.88 1011.10 1011.26 1011.35 1011.40 1011.40 1011.39 1011.35 1011.31 1011.28 1011.23 1011.18 1011.10 1010.98 1010.82 1010.62 1010.40
1012.62 1011.95 1011.28 1010.62 1010.00 1009.41 1008.88 1008.41 1008.02 1007.70 1007.48 1007.34 1007.28 1007.29 1007.36 1007.49 1007.65 1007.86 1008.09 1008.36 1008.65 1008.96 1009.29 1009.62 1009.95 1010.25 1010.53 1010.76 1010.94 1011.07 1011.15 1011.20 1011.23 1011.24 1011.23 1011.22 1011.20 1011.17 1011.10 1010.98 1010.83 1010.62 1010.38 1010.10
1011.54 1010.93 1010.34 1009.77 1009.23 1008.72 1008.26 1007.85 1007.49 1007.20 1007.00 1006.87 1006.82 1006.86 1006.97 1007.14 1007.38 1007.66 1007.97 1008.31 1008.66 1009.02 1009.37 1009.71 1010.01 1010.28 1010.51 1010.70 1010.85 1010.96 1011.04 1011.11 1011.17 1011.22 1011.26 1011.29 1011.30 1011.27 1011.20 1011.08 1010.89 1010.65 1010.36 1010.05
1010.61 1010.06 1009.53 1009.03 1008.55 1008.09 1007.66 1007.27 1006.92 1006.64 1006.43 1006.31 1006.29 1006.36 1006.53 1006.78 1007.10 1007.47 1007.88 1008.31 1008.74 1009.14 1009.52 1009.85 1010.14 1010.37 1010.56 1010.71 1010.83 1010.93 1011.02 1011.12 1011.21 1011.31 1011.41 1011.49 1011.54 1011.54 1011.49 1011.36 1011.16 1010.90 1010.59 1010.26
1009.89 1009.40 1008.91 1008.44 1007.98 1007.52 1007.09 1006.68 1006.32 1006.02 1005.81 1005.71 1005.71 1005.84 1006.08 1006.42 1006.84 1007.33 1007.84 1008.36 1008.86 1009.32 1009.72 1010.06 1010.32 1010.53 1010.68 1010.80 1010.90 1011.00 1011.10 1011.23 1011.38 1011.53 1011.69 1011.83 1011.92 1011.96 1011.93 1011.82 1011.62 1011.36 1011.05 1010.72
1009.43 1008.95 1008.48 1008.00 1007.52 1007.03 1006.56 1006.12 1005.72 1005.41 1005.20 1005.11 1005.15 1005.35 1005.67 1006.11 1006.65 1007.25 1007.87 1008.48 1009.05 1009.56 1009.98 1010.31 1010.56 1010.74 1010.87 1010.97 1011.06 1011.16 1011.30 1011.46 1011.65 1011.87 1012.08 1012.27 1012.42 1012.50 1012.50 1012.41 1012.24 1012.00 1011.71 1011.40
1009.20 1008.72 1008.22 1007.71 1007.18 1006.64 1006.12 1005.63 1005.20 1004.87 1004.66 1004.60 1004.70 1004.96 1005.38 1005.92 1006.56 1007.26 1007.97 1008.66 1009.29 1009.83 1010.27 1010.61 1010.85 1011.01 1011.13 1011.22 1011.31 1011.43 1011.59 1011.80 1012.04 1012.30 1012.57 1012.81 1013.00 1013.12 1013.15 1013.10 1012.96 1012.75 1012.49 1012.22
1009.15 1008.66 1008.13 1007.56 1006.98 1006.38 1005.81 1005.27 1004.83 1004.49 1004.29 1004.27 1004.42 1004.75 1005.25 1005.88 1006.60 1007.37 1008.15 1008.89 1009.56 1010.12 1010.57 1010.90 1011.14 1011.30 1011.42 1011.52 1011.63 1011.78 1011.97 1012.22 1012.50 1012.81 1013.11 1013.39 1013.61 1013.76 1013.83 1013.80 1013.70 1013.54 1013.33 1013.11
1009.24 1008.73 1008.16 1007.56 1006.92 1006.29 1005.67 1005.12 1004.66 1004.33 1004.16 1004.17 1004.38 1004.77 1005.32 1006.00 1006.77 1007.58 1008.39 1009.15 1009.82 1010.38 1010.83 1011.16 1011.40 1011.57 1011.71 1011.83 1011.97 1012.16 1012.39 1012.68 1013.00 1013.34 1013.67 1013.96 1014.21 1014.38 1014.46 1014.47 1014.40 1014.28 1014.12 1013.96
1009.44 1008.91 1008.32 1007.69 1007.03 1006.38 1005.75 1005.20 1004.75 1004.44 1004.30 1004.35 1004.59 1005.01 1005.58 1006.28 1007.05 1007.86 1008.65 1009.38 1010.03 1010.57 1011.00 1011.33 1011.58 1011.77 1011.93 1012.10 1012.28 1012.51 1012.79 1013.11 1013.46 1013.82 1014.16 1014.47 1014.71 1014.89 1014.99 1015.02 1014.98 1014.91 1014.80 1014.69
1009.70 1009.18 1008.59 1007.96 1007.30 1006.65 1006.04 1005.51 1005.09 1004.81 1004.70 1004.77 1005.02 1005.44 1006.00 1006.66 1007.39 1008.14 1008.88 1009.55 1010.15 1010.65 1011.06 1011.38 1011.64 1011.86 1012.06 1012.27 1012.51 1012.79 1013.11 1013.46 1013.83 1014.20 1014.54 1014.84 1015.08 1015.25 1015.36 1015.40 1015.39 1015.35 1015.30 1015.24
1010.00 1009.50 1008.94 1008.33 1007.70 1007.07 1006.50 1006.00 1005.62 1005.37 1005.27 1005.35 1005.59 1005.98 1006.48 1007.08 1007.73 1008.39 1009.03 1009.63 1010.15 1010.60 1010.98 1011.29 1011.56 1011.81 1012.05 1012.31 1012.61 1012.93 1013.29 1013.67 1014.05 1014.42 1014.75 1015.04 1015.26 1015.43 1015.54 1015.59 1015.61 1015.60 1015.58 1015.57
1010.32 1009.85 1009.32 1008.75 1008.15 1007.58 1007.04 1006.59 1006.24 1006.01 1005.93 1005.99 1006.20 1006.53 1006.96 1007.46 1008.00 1008.56 1009.09 1009.59 1010.03 1010.43 1010.77 1011.07 1011.36 1011.63 1011.92 1012.23 1012.57 1012.94 1013.32 1013.71 1014.10 1014.45 1014.77 1015.04 1015.25 1015.41 1015.52 1015.59 1015.63 1015.65 1015.67 1015.70
1010.61 1010.17 1009.68 1009.15 1008.60 1008.07 1007.58 1007.16 1006.84 1006.63 1006.55 1006.59 1006.74 1007.01 1007.35 1007.75 1008.18 1008.62 1009.05 1009.46 1009.83 1010.16 1010.48 1010.77 1011.07 1011.37 1011.69 1012.04 1012.42 1012.81 1013.21 1013.60 1013.98 1014.32 1014.62 1014.87 1015.07 1015.22 1015.34 1015.42 1015.49 1015.54 1015.60 1015.65
1010.80 1010.40 1009.94 1009.44 1008.93 1008.44 1007.99 1007.61 1007.31 1007.11 1007.02 1007.03 1007.15 1007.34 1007.61 1007.92 1008.25 1008.59 1008.93 1009.26 1009.57 1009.86 1010.15 1010.45 1010.75 1011.08 1011.42 1011.79 1012.18 1012.58 1012.98 1013.37 1013.73 1014.05 1014.33 1014.57 1014.76 1014.91 1015.04 1015.14 1015.24 1015.33 1015.42 1015.50
1010.83 1010.45 1010.02 1009.55 1009.07 1008.62 1008.20 1007.85 1007.57 1007.38 1007.28 1007.28 1007.35 1007.50 1007.71 1007.95 1008.21 1008.48 1008.76 1009.03 1009.30 1009.58 1009.86 1010.15 1010.46 1010.79 1011.15 1011.53 1011.92 1012.31 1012.69 1013.06 1013.39 1013.70 1013.96 1014.18 1014.37 1014.53 1014.68 1014.81 1014.94 1015.07 1015.18 1015.29
1010.65 1010.28 1009.86 1009.41 1008.96 1008.53 1008.15 1007.82 1007.57 1007.39 1007.30 1007.29 1007.35 1007.48 1007.65 1007.85 1008.08 1008.32 1008.56 1008.82 1009.07 1009.34 1009.62 1009.91 1010.23 1010.56 1010.92 1011.28 1011.65 1012.02 1012.38 1012.71 1013.02 1013.30 1013.55 1013.77 1013.96 1014.14 1014.31 1014.48 1014.64 1014.80 1014.94 1015.07
1010.20 1009.83 1009.43 1009.00 1008.58 1008.18 1007.83 1007.54 1007.31 1007.16 1007.09 1007.10 1007.16 1007.29 1007.46 1007.66 1007.88 1008.11 1008.36 1008.62 1008.88 1009.15 1009.43 1009.73 1010.05 1010.38 1010.71 1011.06 1011.40 1011.74 1012.06 1012.36 1012.64 1012.90 1013.14 1013.36 1013.57 1013.77 1013.97 1014.17 1014.36 1014.54 1014.71 1014.84
Thickness
5700 5707 5710 5711 5712 5704 5701 5697 5689 5698 5701 5719 5729 5733 5736 5737 5735 5733 5731 5729 5727 5723 5720 5717 5714 5710 5707 5704 5701 5697 5692 5688 5685 5681 5677 5673 5670 5667 5663 5660 5657 5653 5651 5648
5700 5708 5707 5707 5713 5709 5706 5706 5702 5706 5710 5731 5735 5735 5734 5734 5733 5731 5730 5730 5727 5724 5721 5717 5714 5711 5707 5704 5700 5696 5692 5688 5685 5681 5678 5674 5670 5667 5664 5661 5658 5654 5651 5649
5683 5695 5702 5696 5712 5714 5713 5715 5712 5708 5722 5735 5733 5734 5735 5735 5734 5733 5732 5731 5728 5724 5721 5718 5715 5712 5707 5704 5700 5695 5692 5688 5685 5681 5677 5674 5671 5667 5664 5661 5658 5655 5652 5650
5675 5686 5679 5701 5723 5722 5718 5721 5722 5724 5730 5733 5735 5737 5739 5739 5736 5734 5734 5731 5728 5725 5722 5719 5715 5712 5708 5703 5699 5695 5691 5687 5684 5680 5677 5674 5671 5668 5665 5662 5658 5656 5653 5651
5665 5669 5677 5701 5719 5719 5714 5717 5730 5727 5731 5732 5733 5734 5733 5740 5739 5737 5735 5732 5729 5726 5722 5718 5714 5710 5705 5700 5696 5692 5689 5686 5683 5680 5676 5673 5670 5667 5665 5661 5659 5656 5654 5651
5660 5667 5668 5697 5722 5726 5719 5710 5732 5731 5729 5727 5726 5715 5724 5739 5738 5736 5734 5730 5726 5723 5719 5715 5711 5707 5702 5697 5693 5690 5688 5685 5683 5679 5675 5672 5669 5667 5664 5661 5659 5657 5654 5652
5659 5662 5674 5706 5718 5720 5698 5705 5732 5731 5729 5725 5724 5727 5733 5736 5734 5732 5729 5726 5723 5719 5715 5711 5708 5704 5698 5694 5691 5689 5687 5683 5680 5677 5674 5671 5668 5666 5663 5660 5658 5655 5653 5652
5654 5658 5673 5712 5711 5705 5709 5724 5728 5730 5729 5726 5727 5729 5730 5730 5728 5726 5722 5720 5717 5713 5709 5706 5703 5700 5695 5691 5690 5686 5683 5680 5677 5674 5672 5670 5666 5663 5661 5658 5655 5653 5651 5650
5671 5682 5701 5708 5710 5716 5718 5719 5724 5726 5728 5727 5724 5724 5724 5723 5721 5720 5717 5714 5711 5708 5703 5699 5697 5696 5692 5689 5686 5682 5679 5675 5672 5670 5667 5665 5662 5660 5657 5654 5651 5649 5647 5645
5672 5687 5699 5705 5710 5715 5717 5719 5724 5725 5726 5725 5723 5722 5720 5718 5715 5713 5711 5708 5705 5702 5697 5693 5691 5690 5687 5685 5682 5678 5674 5670 5667 5664 5662 5660 5658 5655 5652 5650 5647 5645 5643 5641
5671 5684 5694 5705 5709 5712 5716 5718 5720 5722 5723 5722 5721 5718 5716 5714 5711 5709 5706 5702 5700 5697 5692 5689 5686 5684 5682 5679 5676 5672 5668 5664 5661 5659 5656 5654 5652 5649 5647 5646 5643 5641 5639 5637
5670 5685 5683 5694 5707 5709 5709 5712 5715 5715 5717 5718 5718 5716 5714 5711 5708 5704 5700 5696 5693 5689 5686 5683 5680 5677 5675 5673 5671 5667 5662 5658 5655 5652 5649 5647 5645 5643 5642 5641 5640 5638 5636 5634
5678 5684 5685 5692 5699 5702 5703 5707 5711 5712 5713 5713 5713 5712 5710 5706 5702 5698 5695 5691 5688 5684 5680 5677 5673 5671 5669 5667 5664 5660 5656 5652 5648 5646 5643 5640 5638 5635 5633 5633 5633 5631 5630 5629
5671 5672 5676 5684 5689 5695 5697 5702 5705 5707 5708 5709 5708 5706 5703 5699 5695 5692 5689 5686 5682 5678 5673 5670 5667 5664 5662 5660 5657 5653 5649 5647 5643 5639 5636 5633 5630 5628 5625 5623 5621 5620 5620 5620
5665 5666 5669 5678 5682 5687 5690 5692 5694 5696 5699 5699 5699 5698 5696 5693 5689 5686 5683 5679 5674 5670 5666 5663 5659 5656 5654 5653 5649 5646 5642 5638 5635 5631 5628 5626 5623 5620 5617 5614 5611 5609 5608 5609
5657 5659 5662 5666 5672 5677 5680 5683 5685 5688 5690 5690 5690 5689 5688 5686 5681 5677 5673 5670 5666 5662 5658 5655 5652 5649 5647 5644 5641 5637 5634 5633 5628 5623 5620 5617 5614 5611 5608 5605 5602 5600 5598 5597
5643 5648 5652 5656 5662 5667 5672 5676 5680 5683 5683 5683 5683 5681 5677 5673 5669 5665 5662 5660 5658 5654 5651 5648 5644 5642 5639 5636 5632 5629 5625 5623 5621 5615 5611 5608 5604 5601 5598 5595 5593 5590 5588 5587
5635 5642 5646 5650 5655 5659 5665 5669 5672 5674 5675 5676 5674 5671 5668 5665 5661 5656 5652 5648 5644 5641 5639 5637 5635 5633 5630 5627 5623 5619 5616 5612 5608 5605 5601 5598 5594 5591 5588 5585 5583 5580 5577 5576
5625 5631 5637 5642 5648 5652 5656 5660 5664 5665 5666 5665 5663 5661 5659 5656 5652 5647 5642 5638 5635 5631 5628 5627 5627 5622 5619 5617 5614 5610 5606 5602 5598 5594 5591 5588 5584 5580 5577 5574 5572 5569 5567 5565
5614 5620 5625 5631 5637 5641 5645 5650 5653 5654 5655 5654 5652 5649 5645 5642 5639 5635 5631 5628 5626 5624 5620 5617 5615 5611 5608 5606 5603 5599 5595 5591 5587 5582 5579 5575 5572 5569 5566 5563 5561 5558 5556 5553
5600 5605 5611 5617 5623 5628 5632 5636 5639 5640 5641 5642 5640 5638 5634 5629 5626 5623 5619 5613 5610 5610 5608 5607 5602 5599 5596 5594 5592 5586 5583 5579 5575 5571 5568 5564 5561 5558 5555 5552 5549 5547 5544 5541
5584 5589 5595 5600 5606 5611 5615 5620 5624 5626 5626 5626 5626 5624 5620 5615 5612 5609 5607 5605 5601 5599 5596 5593 5589 5588 5585 5583 5578 5574 5571 5567 5563 5560 5556 5553 5549 5546 5543 5541 5538 5535 5532 5530
5569 5573 5578 5584 5589 5594 5599 5603 5607 5609 5610 5611 5611 5610 5608 5605 5602 5598 5592 5589 5589 5588 5583 5580 5579 5577 5575 5570 5565 5562 5559 5555 5552 5548 5545 5542 5539 5536 5532 5529 5526 5523 5520 5518
5556 5560 5565 5569 5574 5579 5582 5585 5588 5591 5592 5593 5594 5594 5593 5589 5585 5584 5583 5582 5579 5576 5570 5568 5567 5566 5562 5556 5553 5550 5547 5544 5540 5537 5534 5531 5527 5524 5521 5518 5514 5511 5509 5506
5542 5546 5551 5555 5559 5563 5565 5568 5571 5572 5574 5574 5575 5576 5577 5577 5574 5571 5569 5568 5566 5563 5558 5557 5556 5553 5548 5543 5541 5538 5535 5532 5529 5526 5523 5519 5516 5513 5509 5506 5503 5500 5497 5494
5530 5533 5537 5541 5544 5547 5550 5552 5554 5556 5557 5557 5558 5559 5560 5559 5559 5556 5555 5553 5551 5550 5545 5542 5541 5539 5534 5531 5529 5526 5523 5521 5518 5515 5511 5508 5505 5501 5498 5494 5492 5488 5485 5482
5517 5520 5524 5527 5531 5534 5536 5539 5540 5542 5544 5545 5544 5544 5545 5544 5543 5541 5540 5538 5536 5534 5531 5528 5526 5524 5522 5519 5517 5514 5511 5509 5506 5503 5500 5497 5494 5490 5486 5483 5480 5476 5473 5470